Lid_Strength_Index
5 4 4 4 3 3 3 3 2 2 2 2 4 5 6 6 6 7 7 7 7 7 7 7 8 8 9 9 9 10 10 10 10 10 10 10 9 9 9 8 8 7 7
6 5 5 5 4 4 4 3 3 4 4 4 4 4 6 6 7 7 8 8 9 9 9 10 10 11 10 10 10 11 10 10 10 11 12 13 12 11 10 9 9 9 9
7 6 6 6 6 5 5 5 5 4 4 4 3 5 6 6 8 8 9 9 9 10 10 11 11 11 11 11 11 11 11 11 11 11 13 14 15 13 11 10 10 11 10
7 6 6 6 6 5 5 5 5 4 4 3 4 5 7 9 9 9 9 9 10 11 11 11 11 11 11 12 12 11 12 12 13 12 11 12 13 14 15 12 12 12 11
7 7 6 6 5 5 6 6 6 6 5 5 6 7 9 9 9 9 10 10 11 11 11 11 12 12 12 12 12 13 13 12 13 13 13 13 13 13 15 16 15 13 12
7 7 6 6 6 6 7 8 8 7 7 8 8 9 10 10 10 11 11 12 12 12 12 11 12 12 12 13 13 13 13 13 13 13 13 13 15 15 14 15 15 15 13
7 7 7 7 7 8 8 8 8 9 8 9 9 10 10 11 12 12 13 13 13 13 13 13 13 13 13 13 13 13 14 14 14 14 14 13 13 13 13 14 14 15 14
7 7 6 7 7 8 8 8 9 9 9 10 10 11 11 11 12 13 13 13 13 14 13 13 13 14 13 14 14 14 14 14 14 15 14 13 13 12 13 13 14 16 15
7 7 6 6 6 7 8 8 9 9 10 11 11 12 12 13 14 13 13 13 14 13 14 14 14 14 14 14 14 15 15 15 15 14 14 14 13 12 12 12 12 14 17
7 7 7 7 7 7 7 8 9 10 11 11 12 13 14 14 14 13 14 14 14 14 14 15 15 15 15 15 15 15 14 15 14 14 14 13 12 12 12 12 12 12 13
7 7 7 7 8 8 8 9 10 11 11 12 13 14 14 14 14 14 14 15 15 15 15 15 15 15 15 15 15 15 15 15 15 14 13 13 12 12 12 12 11 12 11
7 7 7 8 8 9 9 10 10 11 12 13 14 14 14 14 15 14 15 15 15 15 15 15 15 15 15 15 15 15 15 15 14 13 13 13 12 12 12 11 11 11 11
7 7 7 8 8 9 9 9 11 12 13 14 14 14 15 15 15 15 15 15 15 16 15 15 15 15 14 14 14 14 14 14 13 13 13 13 12 12 11 11 11 10 9
7 7 7 8 8 9 9 10 12 13 14 14 14 15 15 15 15 15 15 15 15 16 16 15 15 14 13 13 13 13 14 14 13 13 12 12 12 11 11 10 10 9 9
7 8 7 8 9 9 10 11 13 14 14 15 15 15 14 15 15 15 15 15 15 15 15 15 14 13 13 12 13 12 13 14 13 13 12 11 9 7 7 8 8 8 9
7 7 7 8 9 10 11 12 13 14 14 15 14 15 14 15 15 15 15 16 16 16 15 14 13 13 12 10 9 10 13 13 13 13 11 10 9 8 6 6 6 6 8
7 6 7 8 9 10 11 13 14 15 15 15 15 14 15 15 15 16 16 16 16 16 15 14 14 14 14 10 10 10 12 13 12 12 11 10 9 8 8 7 6 6 6
6 6 7 8 10 11 12 14 15 15 15 15 15 15 15 16 16 16 17 17 16 16 15 15 15 15 14 10 10 10 12 12 11 10 10 10 9 8 7 8 8 9 9
8 8 8 10 11 12 14 15 15 16 15 15 15 15 15 16 16 17 17 17 16 15 15 15 15 15 15 11 10 10 12 11 11 9 9 8 8 7 6 8 9 10 10
9 9 11 12 13 14 15 15 16 15 16 16 16 16 16 16 18 18 17 16 15 15 15 15 15 13 15 11 10 9 10 11 10 9 8 7 8 7 6 8 10 11 12
11 12 12 13 14 14 14 15 16 17 16 16 16 16 17 17 17 17 16 16 16 16 16 16 15 15 14 13 9 8 9 9 9 9 10 9 7 6 6 7 10 11 9
12 12 13 14 14 14 15 16 17 17 16 16 16 17 17 16 15 16 16 16 16 17 17 16 16 15 14 10 9 7 7 7 9 10 10 9 6 7 7 9 8 8 9
12 12 14 15 14 14 15 17 18 17 17 17 18 17 17 16 16 16 16 16 17 17 17 16 16 15 13 11 8 7 7 7 9 9 8 6 7 8 10 9 9 10 14
13 13 14 15 16 17 17 17 17 17 17 18 18 17 17 16 16 16 16 17 17 17 17 16 15 14 13 11 10 9 9 8 8 7 8 8 9 9 10 11 12 13 14
13 13 14 15 17 17 17 17 17 17 18 18 18 17 17 17 17 16 16 17 16 15 15 15 14 13 12 11 8 8 9 8 8 8 10 12 12 13 13 14 14 14 14
13 14 15 16 17 16 17 17 17 17 18 18 18 17 17 17 17 17 16 13 12 11 11 10 10 10 8 7 7 7 7 6 7 10 13 14 14 14 15 15 15 14 14